When you browse on this site, cookies collect data to enhance your experience and personalize the content and advertising you see.
Visit our Privacy Policy to learn more. By continuing to use the site, you agree to this use of cookies and data.
  • en Belgique
  • Liste des pays
  • À 7 jours
  • Température de l'eau
  • Carte météo
  • Widgets météo
  • user-avatar
    Se connecter

    Météo par heure à Takeo

    Ce jour, 1 Juin, Lundi

    Heure Température Précipitation Vent Pression Humidité
    00:00 +30°C° 0.3 mm 1 m/s 757 mmHg 80%
    01:00 +30°C° 0 mm 1 m/s 758 mmHg 80%
    02:00 +30°C° 0 mm 1 m/s 757 mmHg 80%
    03:00 +29°C° 0 mm 1 m/s 756 mmHg 81%
    04:00 +27°C° 0 mm 0 m/s 756 mmHg 81%
    05:00 +29°C° 0 mm 1 m/s 756 mmHg 80%
    06:00 +30°C° 0 mm 1 m/s 757 mmHg 79%
    07:00 +30°C° 0 mm 1 m/s 757 mmHg 76%
    08:00 +31°C° 0 mm 1 m/s 757 mmHg 69%
    09:00 +33°C° 0 mm 1 m/s 757 mmHg 62%
    10:00 +34°C° 0 mm 1 m/s 757 mmHg 56%
    11:00 +35°C° 0 mm 1 m/s 757 mmHg 52%
    12:00 +34°C° 0 mm 0 m/s 757 mmHg 48%
    13:00 +37°C° 0 mm 1 m/s 756 mmHg 46%
    14:00 +37°C° 0 mm 1 m/s 756 mmHg 46%
    15:00 +38°C° 0 mm 2 m/s 755 mmHg 46%
    16:00 +38°C° 0 mm 2 m/s 754 mmHg 46%
    17:00 +36°C° 0.6 mm 3 m/s 755 mmHg 55%
    18:00 +34°C° 0.6 mm 3 m/s 755 mmHg 64%
    19:00 +33°C° 0.6 mm 3 m/s 756 mmHg 73%
    20:00 +31°C° 0.8 mm 3 m/s 756 mmHg 75%
    21:00 +31°C° 0.8 mm 3 m/s 756 mmHg 77%
    22:00 +30°C° 0.8 mm 2 m/s 757 mmHg 80%
    23:00 +30°C° 1.1 mm 2 m/s 757 mmHg 80%

    Demain, 2 Juin, Mardi

    Heure Température Précipitation Vent Pression Humidité
    00:00 +30°C° 1.1 mm 1 m/s 756 mmHg 81%
    01:00 +30°C° 1.1 mm 1 m/s 756 mmHg 81%
    02:00 +29°C° 0.3 mm 1 m/s 756 mmHg 83%
    03:00 +29°C° 0.3 mm 2 m/s 756 mmHg 84%
    04:00 +29°C° 0.3 mm 3 m/s 755 mmHg 85%
    05:00 +28°C° 0.6 mm 3 m/s 756 mmHg 86%
    06:00 +28°C° 0.6 mm 3 m/s 756 mmHg 87%
    07:00 +28°C° 0.6 mm 3 m/s 757 mmHg 88%
    08:00 +29°C° 0 mm 3 m/s 757 mmHg 83%
    09:00 +30°C° 0 mm 4 m/s 756 mmHg 78%
    10:00 +32°C° 0 mm 4 m/s 756 mmHg 73%
    11:00 +32°C° 0 mm 4 m/s 756 mmHg 70%
    12:00 +33°C° 0 mm 3 m/s 756 mmHg 68%
    13:00 +33°C° 0 mm 3 m/s 756 mmHg 65%
    14:00 +33°C° 0 mm 4 m/s 755 mmHg 64%
    15:00 +34°C° 0 mm 4 m/s 754 mmHg 63%
    16:00 +34°C° 0 mm 5 m/s 754 mmHg 61%
    17:00 +33°C° 0.1 mm 4 m/s 754 mmHg 66%
    18:00 +31°C° 0.1 mm 3 m/s 755 mmHg 71%
    19:00 +30°C° 0.1 mm 3 m/s 755 mmHg 76%
    20:00 +29°C° 0 mm 2 m/s 756 mmHg 77%
    21:00 +29°C° 0 mm 2 m/s 756 mmHg 79%
    22:00 +29°C° 0 mm 2 m/s 757 mmHg 80%
    23:00 +29°C° 0 mm 2 m/s 756 mmHg 81%

    Après-demain, 3 Juin, Mercredi

    Heure Température Précipitation Vent Pression Humidité
    00:00 +29°C° 0 mm 2 m/s 756 mmHg 81%
    01:00 +29°C° 0 mm 2 m/s 756 mmHg 82%
    02:00 +28°C° 0 mm 2 m/s 755 mmHg 82%
    03:00 +28°C° 0 mm 2 m/s 755 mmHg 83%
    04:00 +28°C° 0 mm 2 m/s 755 mmHg 84%
    05:00 +28°C° 0 mm 1 m/s 755 mmHg 83%
    06:00 +29°C° 0 mm 1 m/s 755 mmHg 81%
    07:00 +29°C° 0 mm 1 m/s 756 mmHg 80%
    08:00 +31°C° 0 mm 1 m/s 756 mmHg 73%
    09:00 +32°C° 0 mm 2 m/s 756 mmHg 66%
    10:00 +35°C° 0 mm 2 m/s 756 mmHg 58%
    11:00 +36°C° 0 mm 2 m/s 755 mmHg 55%
    12:00 +37°C° 0 mm 3 m/s 755 mmHg 51%
    13:00 +38°C° 0 mm 3 m/s 754 mmHg 48%
    14:00 +37°C° 0 mm 3 m/s 754 mmHg 50%
    15:00 +37°C° 0 mm 4 m/s 753 mmHg 53%
    16:00 +36°C° 0 mm 4 m/s 753 mmHg 56%
    17:00 +35°C° 0.6 mm 4 m/s 753 mmHg 62%
    18:00 +33°C° 0.6 mm 3 m/s 754 mmHg 68%
    19:00 +31°C° 0.6 mm 3 m/s 754 mmHg 74%
    20:00 +31°C° 0 mm 2 m/s 755 mmHg 76%
    21:00 +30°C° 0 mm 2 m/s 755 mmHg 77%
    22:00 +30°C° 0 mm 2 m/s 755 mmHg 79%
    23:00 +30°C° 0 mm 2 m/s 755 mmHg 80%

    4 Juin, Jeudi

    Heure Température Précipitation Vent Pression Humidité
    00:00 +29°C° 0 mm 2 m/s 755 mmHg 81%
    01:00 +29°C° 0 mm 2 m/s 755 mmHg 83%
    02:00 +29°C° 0.2 mm 2 m/s 755 mmHg 83%
    03:00 +29°C° 0.2 mm 2 m/s 754 mmHg 84%
    04:00 +29°C° 0.2 mm 1 m/s 754 mmHg 84%
    05:00 +29°C° 0 mm 1 m/s 755 mmHg 83%
    06:00 +29°C° 0 mm 2 m/s 755 mmHg 81%
    07:00 +30°C° 0 mm 2 m/s 755 mmHg 79%
    08:00 +31°C° 0 mm 2 m/s 756 mmHg 72%
    09:00 +34°C° 0 mm 3 m/s 756 mmHg 64%
    10:00 +36°C° 0 mm 4 m/s 756 mmHg 56%
    11:00 +36°C° 0 mm 4 m/s 755 mmHg 54%
    12:00 +37°C° 0 mm 4 m/s 755 mmHg 51%
    13:00 +38°C° 0 mm 4 m/s 754 mmHg 48%
    14:00 +37°C° 0.4 mm 5 m/s 754 mmHg 51%
    15:00 +36°C° 0.4 mm 5 m/s 753 mmHg 55%
    16:00 +36°C° 0.4 mm 5 m/s 753 mmHg 58%
    17:00 +35°C° 0 mm 5 m/s 753 mmHg 63%
    18:00 +33°C° 0 mm 4 m/s 754 mmHg 67%
    19:00 +32°C° 0 mm 4 m/s 754 mmHg 72%
    20:00 +31°C° 0 mm 3 m/s 755 mmHg 73%
    21:00 +30°C° 0 mm 3 m/s 755 mmHg 75%
    22:00 +30°C° 0 mm 3 m/s 756 mmHg 77%
    23:00 +30°C° 0 mm 3 m/s 756 mmHg 78%

    5 Juin, Vendredi

    Heure Température Précipitation Vent Pression Humidité
    00:00 +29°C° 0 mm 2 m/s 755 mmHg 79%
    01:00 +29°C° 0 mm 2 m/s 755 mmHg 80%
    02:00 +29°C° 0 mm 2 m/s 754 mmHg 81%
    03:00 +29°C° 0 mm 2 m/s 754 mmHg 82%
    04:00 +29°C° 0 mm 2 m/s 754 mmHg 83%
    05:00 +29°C° 0.4 mm 2 m/s 754 mmHg 81%
    06:00 +30°C° 0.4 mm 2 m/s 755 mmHg 79%
    07:00 +30°C° 0.4 mm 2 m/s 755 mmHg 77%
    08:00 +33°C° 0 mm 3 m/s 755 mmHg 70%
    09:00 +34°C° 0 mm 4 m/s 756 mmHg 64%
    10:00 +36°C° 0 mm 4 m/s 756 mmHg 57%
    11:00 +36°C° 0 mm 4 m/s 755 mmHg 54%
    12:00 +37°C° 0 mm 4 m/s 755 mmHg 52%
    13:00 +38°C° 0 mm 4 m/s 754 mmHg 49%
    14:00 +37°C° 1.2 mm 5 m/s 754 mmHg 52%
    15:00 +36°C° 1.2 mm 5 m/s 753 mmHg 55%
    16:00 +36°C° 1.2 mm 5 m/s 753 mmHg 59%
    17:00 +34°C° 0.4 mm 4 m/s 753 mmHg 63%
    18:00 +33°C° 0.4 mm 4 m/s 754 mmHg 68%
    19:00 +31°C° 0.4 mm 3 m/s 754 mmHg 72%
    20:00 +31°C° 0 mm 3 m/s 755 mmHg 74%
    21:00 +30°C° 0 mm 2 m/s 755 mmHg 75%
    22:00 +30°C° 0 mm 2 m/s 756 mmHg 76%
    23:00 +30°C° 0 mm 2 m/s 755 mmHg 77%

    6 Juin, Samedi

    Heure Température Précipitation Vent Pression Humidité
    00:00 +29°C° 0 mm 2 m/s 755 mmHg 77%
    01:00 +29°C° 0 mm 2 m/s 754 mmHg 78%
    02:00 +29°C° 0 mm 2 m/s 754 mmHg 79%
    03:00 +29°C° 0 mm 2 m/s 754 mmHg 80%
    04:00 +29°C° 0 mm 2 m/s 753 mmHg 81%
    05:00 +29°C° 0 mm 2 m/s 754 mmHg 80%
    06:00 +30°C° 0 mm 2 m/s 754 mmHg 78%
    07:00 +30°C° 0 mm 3 m/s 754 mmHg 76%
    08:00 +33°C° 0.1 mm 3 m/s 754 mmHg 70%
    09:00 +34°C° 0.1 mm 4 m/s 755 mmHg 64%
    10:00 +35°C° 0.1 mm 4 m/s 755 mmHg 58%
    11:00 +36°C° 1.7 mm 5 m/s 755 mmHg 57%
    12:00 +36°C° 1.7 mm 5 m/s 754 mmHg 56%
    13:00 +36°C° 1.7 mm 5 m/s 753 mmHg 56%
    14:00 +36°C° 0.4 mm 5 m/s 753 mmHg 57%
    15:00 +35°C° 0.4 mm 6 m/s 753 mmHg 58%
    16:00 +35°C° 0.4 mm 6 m/s 753 mmHg 59%
    17:00 +34°C° 0 mm 5 m/s 753 mmHg 64%
    18:00 +32°C° 0 mm 4 m/s 753 mmHg 68%
    19:00 +30°C° 0 mm 3 m/s 754 mmHg 73%
    20:00 +30°C° 0 mm 3 m/s 754 mmHg 74%
    21:00 +30°C° 0 mm 3 m/s 755 mmHg 75%
    22:00 +30°C° 0 mm 3 m/s 755 mmHg 76%
    23:00 +29°C° 0 mm 3 m/s 755 mmHg 77%
    Voir plus